User: anonymous   Login
Location: Unspecified
(0.0000°N, 0.0000°E)
Time: 03:53:38
(UTC+00:00)
Language:

DIAMOND RED - Orbit

View from above orbital plane
View from above orbital plane
View from above satellite
View from above satellite

Ground track
Ground track

The orbit data is extracted from the following two-line orbital elements,

1 42783U 17036U   17230.14146806  .00001282  00000-0  61496-4 0  9997
2 42783  97.4453 289.2401 0014158  61.9197 298.3468 15.20623559  8440
Epoch (UTC): 18 August 2017 03:23:42
Eccentricity: 0.0014158
inclination: 97.4453°
perigee height: 494 km
apogee height: 514 km
right ascension of ascending node: 289.2401°
argument of perigee: 61.9197°
revolutions per day: 15.20623559
mean anomaly at epoch: 298.3468°
orbit number at epoch: 844

The dashed part of the orbit path shows where the satellite is in the earth's shadow,  

DLR